This demonstration page uses our WeatherBlox Daily Observations layout. Learn more.

Left ArrowRight Arrow

Hourly Observations for May 2, 2020

Temp ( °F °C ) Dew Point ( °F °C ) Humidity (%) Winds ( mph kmh ) Pressure ( in mb ) Visibility ( mi km ) Precip ( " mm )
12:54 am 00:54 Mostly Cloudy 64 17.8 44 6.7 48 48 NNE 5 7 29.89 1012 10 16.0934 0 0
1:54 am 01:54 Clear 64 17.8 46 7.8 52 52 NNE 10 17 29.88 1012 10 16.0934 0 0
2:54 am 02:54 Clear 64 17.8 46 7.8 52 52 NNW 10 17 29.9 1013 10 16.0934 0 0
3:54 am 03:54 Clear 62 16.7 47 8.3 58 58 N 12 19 29.9 1013 10 16.0934 0 0
4:54 am 04:54 Clear 65 18.3 48 8.9 54 54 N 10 17 29.92 1013 10 16.0934 0 0
5:54 am 05:54 Mostly Clear 63 17.2 48 8.9 58 58 NNE 12 19 29.92 1013 10 16.0934 0 0
6:37 am 06:37 Sunny 63 17.2 49 9.4 60 60 NNE 10 17 29.96 1015 10 16.0934 0.001 0.001
6:54 am 06:54 Sunny 61 16.1 49 9.4 65 65 N 8 13 29.98 1015 10 16.0934 0.001 0.001
7:54 am 07:54 Sunny 62 16.7 50 10 65 65 N 8 13 30.01 1016 10 16.0934 0 0
8:54 am 08:54 Sunny 64 17.8 49 9.4 58 58 N 15 24 30.02 1017 10 16.0934 0 0
9:54 am 09:54 Partly Cloudy 67 19.4 49 9.4 53 53 NNE 16 26 30.01 1016 10 16.0934 0 0
10:54 am 10:54 Partly Cloudy with Light Rain 64 17.8 48 8.9 56 56 NNE 14 22 30.03 1017 10 16.0934 0.001 0.001
11:54 am 11:54 Sunny 71 21.7 45 7.2 39 39 NNE 22 35 30.04 1017 10 16.0934 0.001 0.001
12:54 pm 12:54 Sunny 73 22.8 45 7.2 37 37 NE 15 24 30.03 1017 10 16.0934 0 0
1:54 pm 13:54 Mostly Cloudy 72 22.2 45 7.2 38 38 NNE 16 26 30.01 1016 10 16.0934 0 0
2:54 pm 14:54 Cloudy 70 21.1 44 6.7 39 39 NNE 20 31 30.02 1017 10 16.0934 0 0
3:54 pm 15:54 Cloudy 71 21.7 43 6.1 36 36 NNE 16 26 30 1016 10 16.0934 0 0
4:54 pm 16:54 Cloudy 68 20 44 6.7 42 42 N 14 22 29.99 1016 10 16.0934 0 0
5:54 pm 17:54 Cloudy 67 19.4 43 6.1 42 42 N 13 20 30 1016 10 16.0934 0 0
6:54 pm 18:54 Cloudy 65 18.3 42 5.6 43 43 N 13 20 30 1016 10 16.0934 0 0
7:54 pm 19:54 Cloudy 62 16.7 43 6.1 50 50 N 7 11 30.01 1016 10 16.0934 0 0
8:54 pm 20:54 Cloudy 61 16.1 41 5 48 48 N 8 13 30.02 1017 10 16.0934 0 0
9:54 pm 21:54 Clear 61 16.1 39 3.9 44 44 NNW 5 7 30.04 1017 10 16.0934 0 0
10:54 pm 22:54 Clear 57 13.9 41 5 55 55 NNW 6 9 30.05 1018 10 16.0934 0 0
11:54 pm 23:54 Mostly Clear 55 12.8 42 5.6 62 62 N 6 9 30.04 1017 10 16.0934 0 0

Powered by AerisWeather